Location: *
(37.9500°N, 27.3666°E)
Time: 11:44:55
(UTC+00:00)

Daily predictions for brighter satellites

Satellite Brightness Start Highest point End
(mag) Time Altitude Azimuth Time Altitude Azimuth Time Altitude Azimuth
USA 229 DEB 4.2 15:36:42 10° S 15:42:19 36° ESE 15:48:12 10° NE
USA 229 4.2 15:36:50 10° S 15:42:25 35° ESE 15:48:17 10° NE
USA 215 4.2 15:37:29 10° NE 15:43:38 45° NW 15:49:46 10° WSW
CZ-2D R/B 3.7 15:40:37 10° SE 15:44:13 39° ENE 15:47:51 10° N
Milstar 3 Cent rocket 4.4 15:41:54 10° S 15:45:19 15° SE 15:49:46 10° ESE
Cosmos 1934 Rocket 4.2 15:41:05 10° SSE 15:46:51 47° E 15:52:37 10° NNE
Cosmos 1544 Rocket 4.1 15:42:48 10° SSE 15:46:55 38° E 15:51:02 10° NNE
Cosmos 1844 Rocket 4.3 15:45:06 10° NNE 15:47:54 14° NE 15:50:42 10° E
Landsat 5 4.3 15:44:42 10° NNE 15:48:47 34° E 15:52:53 10° SSE
Cosmos 1328 4.4 15:47:24 10° N 15:51:09 36° ENE 15:54:53 10° SSE
Cosmos 1908 4.2 15:48:14 10° SSW 15:52:01 52° W 15:55:48 10° N
NOAA 6 4.4 15:47:48 10° S 15:52:58 73° WSW 15:58:09 10° NNW
Meteor 1-21 Rocket 4.4 15:48:30 10° N 15:54:26 88° E 16:00:22 10° S
Cosmos 1953 3.3 15:54:14 10° SSW 15:58:11 53° W 16:02:10 10° N
Lacrosse 4 Rocket 2.9 15:55:26 10° N 15:58:41 20° NE 16:01:57 10° ESE
H-2A R/B 2.3 15:54:04 10° SSE 15:59:18 55° ENE 16:04:38 10° N
Okean O Rocket 2.1 15:57:12 10° SE 16:01:12 37° ENE 16:05:14 10° N
NOSS 3-1 (A) 3.3 15:59:54 10° S 16:04:48 51° ESE 16:10:24 10° NE
Cosmos 332 Rocket 4.0 16:00:18 10° S 16:05:01 51° ESE 16:09:46 10° NNE
deb Chang Zheng 4 3.4 16:02:32 10° SSE 16:06:42 68° ENE 16:10:54 10° N
OAO 3 Rocket 4.5 16:02:55 10° SW 16:06:57 27° SSE 16:10:34 12° ESE
FALCON 9 DEB 4.0 16:06:01 10° S 16:08:28 24° SE 16:09:58 16° E
ATLAS 5 CENTAUR R/B 4.0 16:08:18 10° WNW 16:10:41 15° NW 16:13:12 10° N
Cosmos 724 4.3 16:05:48 10° NNW 16:11:44 88° WSW 16:17:32 10° SSE
SL-16 R/B 2.3 16:09:01 10° SSW 16:14:41 86° WNW 16:20:24 10° NNE
USA 267 3.3 16:08:45 10° ESE 16:15:11 67° NE 16:21:40 10° NW
Delta 2 Rocket 3.1 16:11:47 10° WSW 16:15:20 58° S 16:17:39 18° ESE
Cosmos 1602 Rocket 4.3 16:12:26 10° NNE 16:16:12 28° ENE 16:19:57 10° SE
X-37B 1.5 16:15:17 10° NW 16:17:53 30° NNE 16:19:08 21° ENE
CZ-3 Stage 3 4.5 15:46:43 10° W 16:18:26 56° SSW 16:23:12 13° ESE
Cosmos 2123 Rocket 4.0 16:13:19 10° N 16:19:39 73° E 16:25:54 10° SSE
Cosmos 1269 Rocket 4.2 16:14:46 10° NNW 16:20:04 77° WSW 16:25:19 10° S
Cosmos 1300 2.8 16:17:33 10° S 16:21:21 79° W 16:25:09 10° N
COSMO-SKYMED 1 2.6 16:17:13 10° NNE 16:21:35 89° WNW 16:25:55 10° SSW
Okean 1-7 Rocket 3.5 16:18:45 10° N 16:23:11 80° E 16:27:38 10° S
Okean-O 4.2 16:25:12 16° NE 16:25:12 16° NE 16:27:23 10° NNE
NOSS 2-3 (D) 4.1 16:21:18 10° SW 16:25:11 53° NW 16:29:32 10° NNE
Cosmos 2322 Rocket 2.2 16:21:20 10° SSW 16:26:56 90° ESE 16:32:35 10° NNE
CZ-4 R/B 2.2 16:25:03 11° SE 16:28:25 30° ENE 16:32:00 10° N
NOSS 3-1 (C) 3.8 16:24:10 10° SW 16:29:11 54° NW 16:35:02 10° NNE
IRAS Rocket 4.3 16:25:36 10° NNE 16:31:02 55° ESE 16:36:23 10° S
Cosmos 371 Rocket 4.4 16:26:48 10° SW 16:31:27 46° WNW 16:36:10 10° N
Cosmos 2219 Rocket 3.3 16:29:43 10° SSE 16:33:51 22° E 16:33:54 22° E
SJ-11-01 4.2 16:30:28 10° SSE 16:35:07 75° ENE 16:39:50 10° N
FALCON 9 DEB 2.6 16:33:08 10° SW 16:36:02 65° SE 16:36:44 44° ENE
Cosmos 2360 Rocket 2.1 16:31:05 10° S 16:36:37 64° ESE 16:42:13 10° NNE
SL-08 RB Rocket 3.8 16:33:53 10° SSE 16:38:16 51° ENE 16:42:44 10° N
Cosmos 2251 Rocket 3.9 16:34:50 10° N 16:39:46 41° ENE 16:42:56 20° SE
Cosmos 2333 Rocket 2.8 16:38:27 10° SSE 16:43:27 33° ESE 16:45:28 26° ENE
ARGOS 3.1 16:38:28 10° SSE 16:43:51 85° ENE 16:49:18 10° NNW
Cosmos 2228 3.4 16:40:50 10° SSE 16:44:54 40° E 16:49:02 10° NNE
Feng Yun 1-1 Rocket 4.2 16:39:25 10° SSE 16:44:55 67° ENE 16:50:35 10° N
Cosmos 1758 Rocket 3.9 16:41:41 10° N 16:45:45 39° ENE 16:46:52 32° ESE
H-2A R/B 2.4 16:41:31 10° SSE 16:45:47 62° ENE 16:49:54 10° N
FALCON 9 DEB 3.0 16:45:22 10° SSW 16:47:59 50° SSE 16:47:59 50° SSE
CZ-4B R/B 4.0 16:44:08 10° S 16:49:39 56° WSW 16:55:14 10° NNW
FALCON 9 DEB 3.2 16:47:01 10° SSW 16:50:22 54° SE 16:50:27 53° SE
Cosmos 1626 Rocket 3.7 16:46:49 10° N 16:51:08 74° W 16:55:25 10° S
Cosmos 2173 Rocket 4.5 16:46:25 10° SSE 16:51:52 34° E 16:57:24 10° NNE
DMSP B5D1-3 4.5 16:47:16 10° NNE 16:52:21 61° E 16:57:26 10° S
Tiangong 1.6 16:49:16 10° WNW 16:52:22 46° N 16:52:27 45° NNE
SWARM A 4.3 16:50:10 10° S 16:53:26 73° W 16:56:45 10° N
Meteor 1-4 Rocket 3.7 16:55:19 10° SSW 16:58:38 42° WNW 17:01:57 10° N
Cosmos 44 3.9 16:53:48 10° SW 16:59:10 65° WNW 17:04:08 12° NNE
In-Cosmos 22 Rocket 3.9 16:54:13 10° N 16:59:31 70° E 17:04:50 10° SSE
Cosmos 2263 Rocket 4.1 16:54:53 10° NW 16:59:40 30° WSW 17:04:26 10° SSW
FALCON 9 DEB 3.6 16:56:46 10° SW 16:58:55 43° SSW 16:58:55 43° SSW
Cosmos 1605 Rocket 4.3 16:55:53 10° SSW 17:02:05 68° W 17:08:26 10° N
NOSS 2-2 (E) 3.8 16:58:51 10° SSW 17:01:09 36° S 17:01:09 36° S
Cosmos 2322 3.9 17:01:02 10° S 17:06:29 48° ESE 17:07:18 44° E
IRS-1C Rocket 4.0 17:04:19 29° SE 17:06:56 60° ENE 17:12:07 10° N
CZ-2C R/B 3.9 17:03:04 10° N 17:08:18 43° WNW 17:13:25 10° SW
Cosmos 614 Rocket 3.8 17:03:39 10° NNW 17:08:45 81° ENE 17:11:35 27° SSE
YAOGAN 1 2.5 17:05:25 10° SSE 17:09:43 85° WSW 17:14:05 10° NNW
Cosmos 839 Rocket 4.1 17:03:19 10° NNW 17:10:33 88° WSW 17:15:09 19° SSE
CZ-2C R/B 2.9 17:09:44 10° WSW 17:12:26 20° SSW 17:12:44 20° SSW
CSL-04 Rocket 4.0 17:14:21 44° NE 17:14:21 44° NE 17:19:08 10° N
Cosmos 1447 Rocket 4.4 17:09:38 10° N 17:15:48 89° W 17:21:58 10° S
H-2A R/B 2.0 17:13:53 24° N 17:16:18 81° WNW 17:20:31 10° SSW
Cosmos 1892 2.9 17:14:51 10° NNW 17:18:14 63° NW 17:18:14 63° NW
Cosmos 1606 Rocket 4.5 17:17:43 10° S 17:20:26 37° S 17:20:26 37° S
Cosmos 1844 Rocket 2.6 17:26:55 10° NNW 17:32:31 86° WSW 17:33:25 64° SSE
Lacrosse 4 Rocket 2.8 17:33:24 10° NW 17:37:26 38° WSW 17:38:32 32° SW
Okean O Rocket 4.4 17:34:51 10° SW 17:37:40 17° W 17:40:30 10° NW
COSMOS 2428 3.9 17:42:14 10° SSW 17:44:58 30° S 17:44:58 30° S
OAO 3 Rocket 4.4 17:45:19 10° WSW 17:48:21 36° SW 17:48:21 36° SW
Cosmos 1932 4.4 17:44:59 10° NNW 17:51:14 82° WSW 17:51:16 82° WSW
CZ-4 R/B 4.0 18:01:03 12° SW 18:03:25 18° W 18:06:16 10° NW
BREEZE-M R/B 4.5 18:07:27 10° NW 18:09:11 31° NW 18:09:11 31° NW
Cosmos 2219 Rocket 3.4 18:12:03 10° SW 18:15:44 36° WSW 18:15:44 36° WSW
CZ-3 Stage 3 4.2 17:54:40 10° W 18:22:07 41° SW 18:24:26 36° S
Milstar 3 Cent rocket 4.0 18:15:05 10° WSW 18:21:08 46° S 18:21:08 46° S
Cosmos 2333 Rocket 3.7 18:22:38 10° WSW 18:27:35 32° WNW 18:27:35 32° WNW
